Weather in Glybokaya

Ukraine / Chernovtci District     48°05′23″N   25°55′41″E
temp.,
°C
wind,
m/s
gust,
m/s
humid.,
%
clouds,
%
prec.,
mm/h
press.,
hPa
HPBL,
m
5 march, fri
fri523:00+7wsw2262100 0.0 101422
02:00+6sw0180100 0.3 101422
05:00+5sse2381100 0.0 101254
08:00+5sw2274100 0.0 101266
11:00+9nw356191 0.0 1012924
14:00+6nnw568795 0.1 1011415
17:00+2nnw6995100 3.3 1012452
20:00+1nnw61096100 4.3 1016531
6 march, sat
sat623:000nnw6996100 1.5 1019601
02:00−2nnw61096100 3.2 1023638
05:00−2nnw5987100 1.6 1025634
08:00−4nw5986100 1.6 1028387
11:00−1nw687313 0.0 1028928
14:000nw58646 0.0 10281320
17:000nw58660 0.0 10291090
20:00−3wnw49773 0.0 1031253
7 march, sun
sun723:00−3w367684 0.0 1031183
02:00−3sw347742 0.0 103188
05:00−4sw35730 0.0 1029103
08:00−2sw510610 0.0 1027338
11:00+3wsw595238 0.0 1024709
14:00+6w694641 0.0 10221105
17:00+4w5115638 0.0 1019591
20:00−1wsw356320 0.0 102098
8 march, mon
mon823:00−2wsw366617 0.0 1020122
02:00−2wsw35678 0.0 1019101
05:00−3wnw22700 0.0 101829
08:00−1wsw37616 0.0 1018229
11:00+3nw4549100 0.0 10171254
14:00+4nnw4555100 0.0 10161013
17:00+2nnw4771100 0.0 1017882
20:00−1nw4783100 0.3 1020636
9 march, tue
tue923:00−2nnw71188100 1.6 1019923
02:00−4nw5108396 1.6 1020523
05:00−4nw5118221 0.0 1021492
08:00−4nw698342 0.1 1022852
11:00−2nw676699 0.1 10231164
14:000nnw565392 0.1 10231336
17:00−1n345113 0.0 10231306
20:00−4ene226910 0.0 102675